TimeAKDT,TemperatureF,Dew PointF,Humidity,Sea Level PressureIn,VisibilityMPH,Wind Direction,Wind SpeedMPH,Gust SpeedMPH,PrecipitationIn,Events,Conditions,WindDirDegrees,DateUTC
12:53 AM,28.9,19.0,67,30.23,10.0,Calm,Calm,-,N/A,,Mostly Cloudy,0,2013-05-07 08:53:00
1:53 AM,27.0,18.0,69,30.24,10.0,Calm,Calm,-,N/A,,Mostly Cloudy,0,2013-05-07 09:53:00
2:53 AM,25.0,17.1,72,30.25,10.0,Calm,Calm,-,N/A,,Scattered Clouds,0,2013-05-07 10:53:00
3:53 AM,24.1,17.1,75,30.26,10.0,Calm,Calm,-,N/A,,Scattered Clouds,0,2013-05-07 11:53:00
4:53 AM,23.0,15.1,72,30.27,10.0,NE,4.6,-,N/A,,Scattered Clouds,50,2013-05-07 12:53:00
5:53 AM,23.0,16.0,74,30.27,10.0,NE,3.5,-,N/A,,Scattered Clouds,50,2013-05-07 13:53:00
6:53 AM,25.0,16.0,69,30.27,10.0,NE,4.6,-,N/A,,Scattered Clouds,40,2013-05-07 14:53:00
7:53 AM,28.9,18.0,64,30.28,10.0,Calm,Calm,-,N/A,,Scattered Clouds,0,2013-05-07 15:53:00
8:53 AM,32.0,18.0,56,30.28,10.0,Calm,Calm,-,N/A,,Partly Cloudy,0,2013-05-07 16:53:00
9:53 AM,35.1,18.0,50,30.27,10.0,Calm,Calm,-,N/A,,Partly Cloudy,0,2013-05-07 17:53:00
10:53 AM,37.9,19.0,47,30.27,10.0,South,4.6,-,N/A,,Scattered Clouds,170,2013-05-07 18:53:00
11:53 AM,39.9,19.9,45,30.26,10.0,South,9.2,-,N/A,,Scattered Clouds,190,2013-05-07 19:53:00
12:53 PM,41.0,16.0,36,30.25,10.0,SSW,11.5,-,N/A,,Scattered Clouds,200,2013-05-07 20:53:00
1:53 PM,42.1,16.0,35,30.24,10.0,SSW,10.4,-,N/A,,Scattered Clouds,200,2013-05-07 21:53:00
2:53 PM,43.0,17.1,35,30.24,10.0,SSW,11.5,-,N/A,,Scattered Clouds,200,2013-05-07 22:53:00
3:53 PM,43.0,16.0,34,30.24,10.0,SSW,9.2,-,N/A,,Scattered Clouds,210,2013-05-07 23:53:00
4:53 PM,44.1,16.0,32,30.23,10.0,SSW,11.5,18.4,N/A,,Scattered Clouds,200,2013-05-08 00:53:00
5:53 PM,44.1,17.1,34,30.22,10.0,SSW,10.4,-,N/A,,Mostly Cloudy,200,2013-05-08 01:53:00
6:53 PM,44.1,16.0,32,30.22,10.0,WSW,4.6,-,N/A,,Mostly Cloudy,240,2013-05-08 02:53:00
7:53 PM,44.1,16.0,32,30.22,10.0,West,8.1,-,N/A,,Mostly Cloudy,280,2013-05-08 03:53:00
8:53 PM,43.0,17.1,35,30.22,10.0,West,8.1,-,N/A,,Mostly Cloudy,280,2013-05-08 04:53:00
9:53 PM,42.1,17.1,37,30.23,10.0,West,5.8,-,N/A,,Scattered Clouds,280,2013-05-08 05:53:00
10:53 PM,39.0,15.1,38,30.24,10.0,Calm,Calm,-,N/A,,Partly Cloudy,0,2013-05-08 06:53:00
11:53 PM,30.0,19.9,66,30.25,10.0,South,3.5,-,N/A,,Partly Cloudy,170,2013-05-08 07:53:00